WEST,Max TemperatureF,Mean TemperatureF,Min TemperatureF,Max Dew PointF,MeanDew PointF,Min DewpointF,Max Humidity, Mean Humidity, Min Humidity, Max Sea Level PressureIn, Mean Sea Level PressureIn, Min Sea Level PressureIn, Max VisibilityMiles, Mean VisibilityMiles, Min VisibilityMiles, Max Wind SpeedMPH, Mean Wind SpeedMPH, Max Gust SpeedMPH,PrecipitationIn, CloudCover, Events, WindDirDegrees
2013-4-1,79,66,54,37,32,23,51,28,6,29.95,29.90,29.83,12,9,6,30,8,37,0.00,5,,301
2013-4-2,80,66,53,32,17,1,36,15,4,30.04,29.94,29.86,12,9,6,22,10,,0.00,3,,186
2013-4-3,72,60,49,32,23,7,41,24,7,29.86,29.77,29.71,12,8,6,31,8,43,0.00,2,,208
2013-4-4,66,57,48,34,29,23,50,34,12,29.86,29.77,29.71,12,8,6,17,12,,0.00,2,,245
2013-4-5,64,55,46,36,31,27,54,39,16,30.06,29.90,29.77,12,6,4,37,13,,0.00,2,,268
2013-4-6,77,59,41,27,13,-4,43,18,4,30.12,30.05,30.01,12,9,6,20,10,,0.00,1,,224
2013-4-7,77,62,46,27,18,10,43,17,4,30.12,30.03,29.95,12,12,12,12,3,,0.00,,,139
2013-4-8,78,62,46,21,16,12,30,14,4,30.09,30.02,29.98,12,12,12,10,4,,0.00,,,216
2013-4-9,78,64,51,34,24,14,32,18,6,30.12,30.06,30.01,12,9,6,15,5,,0.00,2,,284
2013-4-10,83,68,54,34,29,23,38,21,5,30.24,30.15,30.09,12,10,6,12,5,,0.00,1,,212
2013-4-11,86,70,55,41,31,19,41,22,6,30.21,30.11,29.86,12,9,6,104,5,,0.00,1,,205
2013-4-12,85,71,57,41,34,25,48,25,5,30.09,30.04,29.95,12,9,6,12,5,,0.00,3,,231
2013-4-13,85,71,57,37,31,23,42,22,5,30.09,30.03,29.98,12,9,6,12,4,,0.00,2,,184
2013-4-14,86,76,66,36,29,21,32,17,5,30.15,30.10,30.06,12,8,6,15,5,,0.00,3,,69
2013-4-15,90,74,58,36,29,21,34,18,4,30.24,30.16,30.09,12,7,6,9,5,,0.00,1,,1
2013-4-16,89,75,61,36,29,23,34,17,4,30.24,30.15,30.09,12,7,5,8,4,20,0.00,1,,325
2013-4-17,89,75,61,36,28,21,32,15,4,30.24,30.18,30.12,12,6,5,17,4,,0.00,1,,293
2013-4-18,89,78,68,34,28,21,27,15,4,30.21,30.14,30.04,12,6,5,18,6,34,0.00,2,,291
2013-4-19,90,78,66,30,24,18,18,12,4,30.18,30.11,30.04,6,6,6,17,3,,0.00,2,,122
2013-4-20,88,80,71,43,29,19,28,14,5,30.15,30.10,30.06,12,6,6,22,5,,0.01,2,Thunderstorm,244
2013-4-21,87,74,62,30,26,21,26,14,4,30.15,30.10,30.06,6,6,5,92,11,34,0.00,2,,308
2013-4-22,83,74,66,30,22,9,22,13,4,30.12,29.98,29.89,12,6,4,34,17,45,0.00,3,,282
2013-4-23,81,69,57,32,26,21,26,18,5,29.95,29.87,29.77,12,9,6,15,5,,0.00,2,,90
2013-4-24,81,69,57,34,27,-22,31,20,4,30.01,29.96,29.89,12,8,6,24,11,24,0.00,1,,341
2013-4-25,83,69,55,37,29,15,48,25,5,30.04,29.97,29.86,12,10,6,28,8,,0.00,2,,321
2013-4-26,84,68,53,28,16,7,21,12,4,29.98,29.94,29.86,12,10,6,18,5,,0.00,1,,279
2013-4-27,83,68,53,32,25,14,29,18,4,29.95,29.83,29.71,12,9,6,23,7,28,0.00,2,,248
2013-4-28,75,64,51,28,20,5,41,19,4,30.51,29.70,29.59,12,7,3,37,19,46,0.00,1,,293
2013-4-29,75,60,46,28,13,1,41,17,4,29.77,29.69,29.65,12,10,6,24,14,28,0.00,1,,291
2013-4-30,78,61,44,23,12,3,25,14,4,29.83,29.78,29.71,12,12,12,15,6,,0.00,,,249